Location: *
(50.3194°N, 7.1067°E)
Time: 11:19:54
(UTC+00:00)

Cosmos 2297 Rocket - Pass Details

Date: 22 September 2019
Orbit: 841 x 842 km, 71.0° (Epoch: 22 October)

Event Time Altitude Azimuth Distance (km) Brightness Sun altitude
Rises 18:12:59 0° 176° (S) 3,384 5.2 -7.6°
Reaches altitude 10° 18:15:38 10° 167° (SSE) 2,454 4.4 -8.0°
Maximum altitude 18:20:35 32° 106° (ESE) 1,402 2.8 -8.8°
Drops below altitude 10° 18:25:32 10° 45° (NE) 2,470 4.3 -9.5°
Sets 18:28:12 0° 36° (NE) 3,409 5.1 -10.0°
